Flag for Italy Weather past 2 weeks in Cagliari, Italy

Now
79 °F

Passing clouds.


Feels Like: 82 °F
Forecast: 72 / 86 °F
Wind: 12 mph from North

Location: Cagliari / Elmas

Current Time: Sep 21, 2014 at 10:28:34 PM

Latest Report: Sep 21, 2014 at 9:50 PM


Visibility: N/A

Pressure: 30.01 "Hg

Humidity: 84%

Dew point: 73 °F

Location of CagliariLocation

Historic Weather in Cagliari — Graph

°F

Cagliari temperature yesterday

Maximum temperature yesterday: 91 °F (at 12:20 PM)
Minimum temperature yesterday: 75 °F (at 4:50 AM)
Average temperature yesterday: 80 °F

Past Weeks' High & Low Weather Summary

 TemperatureHumidityPressure
High95 °F (Sep 21, 2:50 PM)100% (Sep 7, 6:50 AM)30.07 "Hg (Sep 7, 6:50 AM)
Low64 °F (Sep 11, 5:20 AM)29% (Sep 13, 2:20 PM)29.80 "Hg (Sep 18, 5:20 AM)
Average77 °F77%29.94 "Hg
* Reported Sep 6 9:20 PM — Sep 21 9:20 PM, Cagliari, Weather by CustomWeather, © 2014

Note: Actual official high and low records may vary slightly from our data, if they occured in-between our weather recording intervals... More about our weather records

Advertising

Cagliari weather history for previous 24 hours

 ConditionsComfort  
Time TempWeatherWind HumidityBarometerVisibility
9:20 PM
Sep 21
81 °FClear.12 mph74%30.01 "Hg10 mi
8:50 PM81 °FClear.13 mph74%30.01 "Hg10 mi
8:20 PM82 °FSunny.12 mph66%29.98 "Hg10 mi
7:50 PM84 °FSunny.13 mph58%29.98 "Hg10 mi
7:20 PM84 °FSunny.13 mph62%29.98 "Hg10 mi
6:50 PM88 °FSunny.14 mph49%29.98 "Hg10 mi
6:20 PM91 °FPassing clouds.13 mph36%29.98 "HgN/A
5:50 PM93 °FPassing clouds.13 mph32%29.98 "HgN/A
5:20 PM93 °FSunny.16 mph30%29.95 "Hg10 mi
4:50 PM95 °FSunny.16 mph30%29.98 "Hg10 mi
4:20 PM86 °FSunny.6 mph70%29.98 "Hg10 mi
3:50 PM88 °FSunny.7 mph59%29.98 "Hg10 mi
3:20 PM88 °FSunny.13 mph62%29.98 "Hg10 mi
2:50 PM95 °FPassing clouds.3 mph41%29.98 "HgN/A
2:20 PM93 °FSunny.3 mph39%29.98 "Hg10 mi
1:50 PM88 °FSunny.8 mph52%30.01 "Hg10 mi
1:20 PM86 °FSunny.9 mph59%30.04 "Hg10 mi
12:50 PM86 °FPassing clouds.9 mph59%30.04 "HgN/A
12:20 PM86 °FSunny.9 mph52%30.04 "Hg10 mi
11:50 AM88 °FSunny.5 mph46%30.04 "Hg10 mi
11:20 AM86 °FPassing clouds.3 mph59%30.04 "HgN/A
10:50 AM86 °FSunny.2 mph52%30.04 "Hg10 mi
10:20 AM81 °FPassing clouds.5 mph70%30.04 "HgN/A
9:50 AM79 °FPassing clouds.6 mph74%30.04 "HgN/A
9:20 AM77 °FSunny.7 mph79%30.04 "Hg10 mi
8:50 AM73 °FSunny.6 mph83%30.04 "Hg10 mi
8:20 AM72 °FSunny.6 mph88%30.04 "Hg10 mi
7:50 AM72 °FClear.7 mph88%30.04 "Hg10 mi
7:20 AM72 °FClear.7 mph94%30.04 "Hg10 mi
6:50 AM72 °FClear.6 mph94%30.04 "Hg10 mi
6:20 AM73 °FClear.7 mph94%30.04 "Hg10 mi
5:50 AM73 °FClear.8 mph89%30.04 "Hg10 mi
5:20 AM73 °FClear.3 mph89%30.04 "Hg10 mi
4:50 AM75 °FPassing clouds.6 mph83%30.04 "HgN/A
4:20 AM75 °FClear.7 mph83%30.04 "Hg5 mi
3:50 AM73 °FClear.9 mph94%30.04 "Hg5 mi
3:20 AM73 °FPassing clouds.5 mph94%30.04 "Hg5 mi
2:50 AM73 °FPassing clouds.3 mph94%30.04 "Hg4 mi
2:20 AM73 °FFog.2 mph100%30.04 "Hg2 mi
1:50 AM75 °FFog.1 mph100%30.04 "Hg3 mi
1:20 AM75 °FFog.2 mph100%30.04 "Hg4 mi
12:50 AM75 °FFog.No wind100%30.04 "Hg4 mi
12:20 AM75 °FPassing clouds.2 mph100%30.07 "Hg4 mi
11:50 PM
Sep 20
75 °FFog.2 mph100%30.04 "Hg4 mi
11:20 PM75 °FFog.3 mph100%30.04 "Hg4 mi
10:50 PM77 °FFog.1 mph100%30.07 "Hg4 mi
10:20 PM77 °FClear.1 mph100%30.07 "Hg4 mi
Weather by CustomWeather, © 2014

See weather overviewHow to use our weather pages